User: anonymous   Login
Location: ??
(34.9170°N, 135.5016°E)
Time: 11:50:16
(UTC+00:00)
Language:

Cosmos 1992 Rocket - Orbit

View from above orbital plane
View from above orbital plane
View from above satellite
View from above satellite

Ground track
Ground track

The orbit data is extracted from the following two-line orbital elements,

1 19770U 89005B   21016.87124844  .00000063  00000-0  28973-4 0  9996
2 19770  74.0448 155.2978 0006069 270.6801 204.3165 14.38860110674645
Epoch (UTC): 16 January 2021 20:54:35
Eccentricity: 0.0006069
inclination: 74.0448°
perigee height: 758 km
apogee height: 766 km
right ascension of ascending node: 155.2978°
argument of perigee: 270.6801°
revolutions per day: 14.38860110
mean anomaly at epoch: 204.3165°
orbit number at epoch: 67464

The dashed part of the orbit path shows where the satellite is in the earth's shadow,  

DLR